"Pseudo-MPEC" for ST26G93

Created 2026 Jul 28 21:35:15 UT using Find_Orb

Click here for an explanation of pseudo-MPECs

 
 Astrometry: 
     ST26G93* C2026 07 23.41639121 13 37.668+23 01 52.80   ~7NHK 19.85GVNEOCPU68
     ST26G93  C2026 07 23.41973221 13 51.994+23 00 47.80   ~7NHK 19.85GVNEOCPU68
     ST26G93  C2026 07 23.43222821 14 45.941+22 56 46.08   ~7NHZ 19.29GVNEOCPU74
     ST26G93  C2026 07 23.43480021 14 57.055+22 55 57.52   ~7NHZ 19.29GVNEOCPU74

Station data:
(U68) JPL SynTrack Robotic Telescope, Auberry  (N37.070387 W119.412990)
   US/California.  Observers N. Saini, C. Zhai, R. Trahan, M. Zhan, M. Shao.
   0.28-m f/2.2 Schmidt + CCD.
(U74) JPL SynTrack Robotic Telescope 2, Auberry  (N37.070341 W119.412800)
   US/California.  Observers N. Saini, C. Zhai, R. Trahan, M. Zhan, M. Shao.
   0.36-m f/2.2 Schmidt.

Orbital elements:  ST26G93
   Perihelion 2026 Jul 21.145202 +/- 26.6 TT =  3:29:05.4 (JD 2461242.645202)
Epoch 2026 Jul 23.0 TT = JDT 2461244.5   Earth MOID: 0.0123   Ma: 0.0787
M   0.509082963 +/- 20              (J2000 ecliptic)             AutoNEOCP
n   0.274468117 +/- 0.267           Peri.  171.441860 +/- 60
a   2.344992439 +/- 1.52            Node   126.374538 +/- 54
e   0.56271958 +/- 0.251            Incl.    4.722877 +/- 9
P   3.59097                H 27.30  G  0.15   U 11.9  SR
q 1.025419266 +/- 0.0854    Q 3.664565612 +/- 6.52
From 4 observations 2026 July 23 (26.5 min); mean residual 0".53
Residuals in arcseconds: 
260723 U68  .63+  .41+    260723 U74  .14-  .70-    
260723 U68  .75-  .38-    260723 U74  .26+  .67+    

Ephemerides (geocentric):
Date (UTC) HH   RA             Dec           delta  r     elong  mag " sig PA
---- --------  ------------   ------------  ------ ------ -----  --- --------
2026 07 28 22  00 31 33.342   +01 22 40.78  .03114 1.0301 117.7 22.0  46d  72
2026 07 28 23  00 32 06.146   +01 18 09.83  .03131 1.0302 117.6 22.0  46d  72
2026 07 29 00  00 32 38.586   +01 13 41.74  .03148 1.0302 117.6 22.0  46d  72
2026 07 29 01  00 33 10.668   +01 09 16.47  .03165 1.0303 117.5 22.0  46d  72
2026 07 29 02  00 33 42.398   +01 04 53.98  .03182 1.0303 117.4 22.1  46d  72
2026 07 29 03  00 34 13.781   +01 00 34.24  .03199 1.0304 117.4 22.1  46d  72
2026 07 29 04  00 34 44.822   +00 56 17.21  .03216 1.0305 117.3 22.1  46d  72
2026 07 29 05  00 35 15.526   +00 52 02.84  .03233 1.0305 117.3 22.1  46d  72
2026 07 29 06  00 35 45.898   +00 47 51.10  .03250 1.0306 117.2 22.1  46d  72
2026 07 29 07  00 36 15.944   +00 43 41.95  .03268 1.0306 117.2 22.1  46d  72
2026 07 29 08  00 36 45.667   +00 39 35.36  .03285 1.0307 117.1 22.1  46d  72
2026 07 29 09  00 37 15.073   +00 35 31.29  .03302 1.0307 117.1 22.1  46d  72
2026 07 29 10  00 37 44.167   +00 31 29.70  .03319 1.0308 117.0 22.2  46d  72
2026 07 29 11  00 38 12.953   +00 27 30.57  .03336 1.0308 117.0 22.2  46d  72
2026 07 29 12  00 38 41.435   +00 23 33.85  .03354 1.0309 116.9 22.2  46d  72
2026 07 29 13  00 39 09.618   +00 19 39.51  .03371 1.0309 116.9 22.2  46d  72
2026 07 29 14  00 39 37.506   +00 15 47.52  .03388 1.0310 116.8 22.2  46d  72
2026 07 29 15  00 40 05.104   +00 11 57.85  .03406 1.0310 116.8 22.2  46d  72
2026 07 29 16  00 40 32.415   +00 08 10.46  .03423 1.0311 116.8 22.2  46d  72
2026 07 29 17  00 40 59.444   +00 04 25.33  .03440 1.0312 116.7 22.2  46d  72
2026 07 29 18  00 41 26.195   +00 00 42.42  .03458 1.0312 116.7 22.3  46d  72
2026 07 29 19  00 41 52.672   -00 02 58.30  .03475 1.0313 116.6 22.3  46d  72
2026 07 29 20  00 42 18.878   -00 06 36.86  .03493 1.0313 116.6 22.3  46d  72
2026 07 29 21  00 42 44.817   -00 10 13.29  .03510 1.0314 116.5 22.3  46d  72
2026 07 29 22  00 43 10.494   -00 13 47.61  .03527 1.0314 116.5 22.3  46d  72
2026 07 29 23  00 43 35.912   -00 17 19.86  .03545 1.0315 116.5 22.3  46d  72
2026 07 30 00  00 44 01.074   -00 20 50.07  .03562 1.0315 116.4 22.3  46d  72
2026 07 30 01  00 44 25.983   -00 24 18.25  .03580 1.0316 116.4 22.3  46d  72
2026 07 30 02  00 44 50.645   -00 27 44.44  .03597 1.0317 116.4 22.4  46d  72
2026 07 30 03  00 45 15.061   -00 31 08.67  .03615 1.0317 116.3 22.4  46d  72
2026 07 30 04  00 45 39.235   -00 34 30.96  .03632 1.0318 116.3 22.4  46d  72
2026 07 30 05  00 46 03.171   -00 37 51.34  .03650 1.0318 116.3 22.4  46d  72
2026 07 30 06  00 46 26.872   -00 41 09.84  .03667 1.0319 116.2 22.4  46d  72
2026 07 30 07  00 46 50.341   -00 44 26.47  .03685 1.0320 116.2 22.4  46d  72
2026 07 30 08  00 47 13.581   -00 47 41.26  .03703 1.0320 116.2 22.4  46d  72
2026 07 30 09  00 47 36.595   -00 50 54.25  .03720 1.0321 116.1 22.4  46d  72
2026 07 30 10  00 47 59.387   -00 54 05.44  .03738 1.0321 116.1 22.4  46d  72
2026 07 30 11  00 48 21.958   -00 57 14.87  .03755 1.0322 116.1 22.5  46d  72
2026 07 30 12  00 48 44.313   -01 00 22.56  .03773 1.0323 116.0 22.5  46d  72
2026 07 30 13  00 49 06.454   -01 03 28.53  .03791 1.0323 116.0 22.5  46d  72
2026 07 30 14  00 49 28.383   -01 06 32.81  .03808 1.0324 116.0 22.5  46d  73
2026 07 30 15  00 49 50.104   -01 09 35.41  .03826 1.0324 115.9 22.5  46d  73
2026 07 30 16  00 50 11.620   -01 12 36.36  .03844 1.0325 115.9 22.5  46d  73
2026 07 30 17  00 50 32.932   -01 15 35.68  .03861 1.0326 115.9 22.5  46d  73
2026 07 30 18  00 50 54.044   -01 18 33.39  .03879 1.0326 115.9 22.5  46d  73
2026 07 30 19  00 51 14.959   -01 21 29.51  .03897 1.0327 115.8 22.5  46d  73
2026 07 30 20  00 51 35.678   -01 24 24.06  .03914 1.0327 115.8 22.6  46d  73
2026 07 30 21  00 51 56.205   -01 27 17.06  .03932 1.0328 115.8 22.6  46d  73